TimeCET,TemperatureF,Dew PointF,Humidity,Sea Level PressureIn,VisibilityMPH,Wind Direction,Wind SpeedMPH,Gust SpeedMPH,PrecipitationIn,Events,Conditions,WindDirDegrees,DateUTC
12:00 AM,27,22,72,29.99,,ENE,2.2,,,,,70,2014-02-05 23:00:00
1:00 AM,28,23,74,29.99,,ENE,4.5,,,,,70,2014-02-06 00:00:00
2:00 AM,30,25,73,29.99,,ENE,4.5,,,,,60,2014-02-06 01:00:00
2:07 AM,30.2,24.8,80,29.98,-9999.0,East,4.6,-,N/A,,Unknown,80,2014-02-06 01:07:00
3:00 AM,30,25,73,29.98,,East,4.5,,,,,80,2014-02-06 02:00:00
4:00 AM,30,25,73,29.97,,East,4.5,,,,,80,2014-02-06 03:00:00
5:00 AM,31,25,72,29.97,,ENE,4.5,,,,,60,2014-02-06 04:00:00
5:15 AM,32.0,24.8,75,29.95,5.0,NE,4.6,-,N/A,,Mostly Cloudy,50,2014-02-06 04:15:00
5:45 AM,32.0,24.8,75,29.95,5.0,NE,4.6,-,N/A,,Mostly Cloudy,50,2014-02-06 04:45:00
6:00 AM,32,26,68,29.97,5,NE,4.5,,,,Partly Cloudy,50,2014-02-06 05:00:00
6:00 AM,-9999,-9999,N/A,-9999,2.5,Variable,3.5,-,N/A,Rain,Light Rain,0,2014-02-06 05:00:00
6:15 AM,32.0,24.8,75,29.95,-9999.0,ENE,4.6,-,N/A,,Clear,70,2014-02-06 05:15:00
6:45 AM,32.0,24.8,75,29.95,3.7,ENE,4.6,-,N/A,,Overcast,60,2014-02-06 05:45:00
7:00 AM,33,25,62,29.98,4,ENE,4.5,,,,Partly Cloudy,60,2014-02-06 06:00:00
7:00 AM,33.8,24.8,70,29.98,2.2,ENE,2.3,-,N/A,,Haze,60,2014-02-06 06:00:00
7:15 AM,33.8,24.8,70,29.98,2.2,NE,2.3,-,N/A,,Haze,50,2014-02-06 06:15:00
7:45 AM,33.8,24.8,70,29.98,2.2,NE,3.5,-,N/A,,Haze,40,2014-02-06 06:45:00
8:00 AM,34,25,58,29.98,2,NE,4.5,,,,Haze,40,2014-02-06 07:00:00
8:15 AM,33.8,26.6,75,29.98,-9999.0,ENE,2.3,-,N/A,,Haze,70,2014-02-06 07:15:00
8:45 AM,35.6,26.6,70,29.98,2.5,NE,3.5,-,N/A,,Haze,50,2014-02-06 07:45:00
9:00 AM,35,26,60,29.99,2,NE,4.5,,,,Haze,50,2014-02-06 08:00:00
9:00 AM,-9999,-9999,N/A,-9999,2.5,ENE,3.5,-,N/A,Rain,Light Rain,60,2014-02-06 08:00:00
9:15 AM,35.6,26.6,70,29.98,2.8,ENE,3.5,-,N/A,,Haze,60,2014-02-06 08:15:00
9:45 AM,37.4,26.6,65,29.98,-9999.0,ENE,2.3,-,N/A,,Haze,70,2014-02-06 08:45:00
10:00 AM,38,27,54,29.99,3,ENE,2.2,,,,Haze,70,2014-02-06 09:00:00
10:10 AM,41.0,26.6,57,30.01,3.7,Calm,Calm,-,N/A,,Mostly Cloudy,0,2014-02-06 09:10:00
10:15 AM,41.0,26.6,57,29.98,3.7,Calm,Calm,-,N/A,,Mostly Cloudy,0,2014-02-06 09:15:00
10:45 AM,41.0,26.6,57,29.98,3.7,West,5.8,-,N/A,,Mostly Cloudy,260,2014-02-06 09:45:00
11:00 AM,41,26,44,29.99,4,West,4.5,,,,Partly Cloudy,260,2014-02-06 10:00:00
11:15 AM,39.2,26.6,61,29.98,3.7,WSW,4.6,-,N/A,,Mostly Cloudy,250,2014-02-06 10:15:00
11:45 AM,39.2,28.4,65,29.98,3.7,West,4.6,-,N/A,,Mostly Cloudy,260,2014-02-06 10:45:00
12:00 PM,39,28,54,29.99,4,West,4.5,,,,Partly Cloudy,260,2014-02-06 11:00:00
12:00 PM,-9999,-9999,N/A,-9999,2.5,Variable,3.5,-,N/A,Rain,Light Rain,0,2014-02-06 11:00:00
12:15 PM,39.2,28.4,65,29.98,4.3,West,4.6,-,N/A,,Overcast,260,2014-02-06 11:15:00
12:45 PM,37.4,28.4,70,29.98,4.3,West,3.5,-,N/A,,Overcast,260,2014-02-06 11:45:00
1:00 PM,38,29,60,29.99,4,West,2.2,,,,Partly Cloudy,260,2014-02-06 12:00:00
1:15 PM,37.4,30.2,75,29.98,5.0,WSW,3.5,-,N/A,,Overcast,250,2014-02-06 12:15:00
1:45 PM,37.4,30.2,75,29.98,3.7,WNW,2.3,-,N/A,Rain,Light Rain,300,2014-02-06 12:45:00
2:00 PM,37,31,69,29.99,4,WNW,2.2,,,Rain,Light Rain,300,2014-02-06 13:00:00
2:15 PM,37.4,32.0,81,29.98,3.7,Calm,Calm,-,N/A,Rain,Light Rain,0,2014-02-06 13:15:00
2:45 PM,37.4,32.0,81,29.98,3.7,Calm,Calm,-,N/A,Rain,Light Rain,0,2014-02-06 13:45:00
3:00 PM,37,31,72,29.99,4,Calm,Calm,,,Rain,Light Rain,,2014-02-06 14:00:00
3:15 PM,37.4,32.0,81,29.98,3.7,Calm,Calm,-,N/A,Rain,Light Rain,0,2014-02-06 14:15:00
3:45 PM,35.6,32.0,87,29.98,3.7,Calm,Calm,-,N/A,Rain,Light Rain,0,2014-02-06 14:45:00
4:00 PM,36,32,79,30.00,4,Calm,Calm,,,Rain,Light Rain,,2014-02-06 15:00:00
4:15 PM,35.6,32.0,87,29.98,3.7,ESE,1.2,-,N/A,,Overcast,120,2014-02-06 15:15:00
4:45 PM,35.6,32.0,87,30.01,3.7,SE,1.2,-,N/A,,Overcast,130,2014-02-06 15:45:00
5:00 PM,35,31,80,30.01,4,SE,2.2,,,,Partly Cloudy,130,2014-02-06 16:00:00
5:00 PM,-9999,-9999,N/A,-9999,-9999.0,North,-9999.0,-,N/A,,Unknown,0,2014-02-06 16:00:00
6:00 PM,35,32,83,30.03,,Calm,Calm,,,,,,2014-02-06 17:00:00
7:00 PM,35,32,83,30.03,,NNW,2.2,,,,,340,2014-02-06 18:00:00
8:00 PM,35,32,84,30.03,,Calm,Calm,,,,,,2014-02-06 19:00:00
9:00 PM,34,32,87,30.04,,SE,2.2,,,,,140,2014-02-06 20:00:00
10:00 PM,34,32,89,30.03,,East,4.5,,,,,90,2014-02-06 21:00:00
11:00 PM,34,32,89,30.04,,SE,4.5,,,,,130,2014-02-06 22:00:00